Regional Weather Roundup
Issued by NWS Albany, NY

Home | Current Version | Previous Version | Text Only | Print | Product List | Glossary On
Versions: 1 2 3 4 5 6 7 8 9 10 11 12 13 14 15 16 17 18 19 20 21 22 23 24 25 26 27 28 29 30 31 32 33 34 35 36 37 38 39 40 41 42 43 44 45 46 47 48 49 50
035
ASUS41 KALY 221210
RWRALY

NEW YORK STATE HOURLY WEATHER ROUNDUP
NATIONAL WEATHER SERVICE ALBANY NY
800 AM EDT WED MAR 22 2017

NOTE: "FAIR" INDICATES FEW OR NO CLOUDS BELOW 12,000 FEET WITH NO
SIGNIFICANT WEATHER AND/OR NO OBSTRUCTIONS TO VISIBILITY.

NYZ032-033-038>043-046>054-057>066-NYZ062>081-082-084-221300-
EAST


CITY           SKY/WX    TMP DP  RH WIND       PRES   REMARKS
ALBANY         MOSUNNY   22   7  52 NW28G43   30.07R WCI   4
GLENS FALLS    CLOUDY    20   6  55 NW15G25   30.07R WCI   6
POUGHKEEPSIE   SUNNY     31  11  43 W20G33    29.99R WCI  19
NEWBURGH       MOSUNNY   32  19  59 NW29G40   30.00R WCI  18
MONTGOMERY     MOSUNNY   32  12  43 NW25G38   30.02R WCI  19
WHITE PLAINS   MOSUNNY   35  17  47 NW25G39   29.95R WCI  23
ISLIP          MOSUNNY   39  20  46 NW18G25   29.94R WCI  30
NEW YORK CITY  MOSUNNY   40  19  43 NW28G40   29.99R WCI  29
CENTRAL PARK   MOSUNNY   36  16  44 W10G32    30.02R WCI  28
$$

NYZ005>009-017-018-044>046-055-056-221300-
CENTRAL


CITY           SKY/WX    TMP DP  RH WIND       PRES   REMARKS
FULTON         LGT SNOW  17   5  59 N17G28    30.29R WCI   1
SYRACUSE       PTCLDY    16   3  56 N22       30.27R BLWGSNOWWCI  -2
ROME           PTCLDY    14   1  56 NW21G31   30.23R WCI  -4
ELMIRA         MOCLDY    22   7  52 NW13G26   30.21R WCI  10
BINGHAMTON     LGT SNOW  16  10  77 N16G28    30.10R VSB 1   WCI   1
MONTICELLO     PTSUNNY   25  10  54 NW23G36   30.00R WCI  10
$$

NYZ026>034-041>043-087-221300-
NORTH


CITY           SKY/WX    TMP DP  RH WIND       PRES   REMARKS
WATERTOWN      CLEAR     12  -2  53 N13       30.32R WCI  -3
FORT DRUM      NOT AVBL
MASSENA        SUNNY      8  -8  48 NW15G22   30.30R WCI  -9
SARANAC LAKE   CLOUDY     3  -6  66 NW13G22   30.06R WCI -14
PLATTSBURGH    CLOUDY    13  -1  54 NW16G29   30.13R WCI  -3
$$

NYZ001>004-010>016-019>021-085-221300-
WEST


CITY           SKY/WX    TMP DP  RH WIND       PRES   REMARKS
NIAGARA FALLS  CLEAR     20   1  43 N17       30.38R WCI   5
BUFFALO        PTCLDY    19   3  49 N15G22    30.36R WCI   5
DUNKIRK        CLOUDY    21   8  57 N16G24    30.38R WCI   7
JAMESTOWN      CLEAR     18   3  53 NW16      30.26R WCI   3
WELLSVILLE     PTCLDY    16   1  51 NW20G29   30.19R WCI  -1
ROCHESTER      MOCLDY    19   4  51 N15       30.33R WCI   5
PENN YAN       SNOW      18  11  74 NW14G23   30.25R VSB 1/2 WCI   4
$$

             KEY
       WCI = WIND CHILL INDEX
       VSB = VISIBILITY
       HX  = HEAT INDEX
$$




USA.gov is the U.S. government's official web portal to all federal, state and local government web resources and services.